Temp
83 83 85 84 81 80 79 78 76 74 75 73 73 72 74 75 75 77 80 79 79 81 78 76 77 78 76 76 76 75 74 74 73 69 71 70 73 74 74 74 70 71 72
81 82 83 83 80 79 79 76 78 76 76 77 73 74 74 75 76 76 78 80 79 79 79 77 77 77 76 75 76 74 72 72 72 69 65 64 69 72 75 71 71 70 70
80 81 81 81 82 79 78 77 78 77 77 76 73 74 74 74 74 74 76 78 79 79 79 78 77 76 74 75 74 74 73 71 71 70 66 62 61 64 70 72 70 70 68
83 82 81 79 81 81 81 80 77 77 77 74 76 74 74 71 72 75 76 79 80 79 79 79 78 77 75 74 75 76 74 73 70 69 70 68 67 64 63 69 68 69 70
84 82 83 82 83 83 81 81 77 78 78 77 78 76 73 71 74 75 75 75 77 78 80 79 78 76 76 76 75 74 73 73 70 69 67 66 66 66 64 62 65 67 68
85 85 86 83 82 84 83 81 77 76 78 78 75 74 73 72 72 73 73 74 76 77 79 81 78 77 76 76 76 74 74 73 72 70 68 67 66 66 65 63 64 64 66
85 84 83 81 81 81 81 81 78 76 77 77 77 75 74 72 73 73 74 74 74 75 77 77 76 77 77 77 76 74 73 73 71 71 70 69 68 68 66 65 63 63 64
87 85 84 84 82 82 81 81 79 78 77 77 77 77 75 74 73 73 73 74 76 76 77 77 78 78 77 78 76 73 73 73 72 72 71 70 69 68 67 66 63 61 61
87 87 85 85 84 82 81 81 79 79 78 78 78 77 77 75 77 75 74 77 78 79 77 78 77 76 76 77 75 74 74 70 69 70 71 70 70 70 68 67 65 62 58
88 88 85 85 86 85 84 82 81 79 79 79 79 79 78 76 78 74 75 75 76 76 76 77 77 77 76 77 76 73 70 70 67 68 69 69 70 69 67 68 65 64 60
88 88 87 86 87 87 84 83 81 79 79 79 79 79 79 79 76 76 77 78 76 75 75 76 76 76 76 76 75 69 70 70 68 66 67 67 70 67 67 66 62 60 60
87 89 89 87 86 86 85 82 82 80 79 79 79 78 78 76 76 77 78 76 74 75 75 75 76 76 75 76 72 68 68 70 69 65 67 68 70 66 64 60 58 58 56
81 85 88 86 85 85 86 83 83 81 81 79 79 78 77 77 76 77 76 76 75 75 75 76 76 76 77 76 71 68 68 67 66 67 68 70 66 62 59 58 56 54 57
82 83 86 85 85 85 85 84 83 82 81 80 79 78 77 77 78 77 76 75 76 76 76 76 76 77 77 75 71 68 68 68 69 67 67 67 64 61 58 56 53 53 52
82 85 86 84 84 84 85 85 84 81 81 79 78 78 79 79 78 76 76 76 76 77 77 77 77 77 77 74 70 69 69 69 63 64 64 66 67 66 62 58 52 52 50
86 86 86 85 84 84 84 84 83 80 81 79 78 79 78 77 77 76 75 76 76 77 77 77 78 78 79 67 67 69 69 65 65 63 66 66 65 64 65 64 62 57 52
84 82 85 85 84 85 86 83 83 82 79 79 79 78 77 76 76 76 76 76 77 77 77 77 78 75 71 64 65 68 69 65 66 67 62 65 65 61 59 63 63 63 63
79 81 84 87 85 86 85 85 83 80 80 79 79 78 77 77 75 76 76 76 77 77 77 77 75 72 68 63 64 67 70 70 68 63 59 58 56 57 58 56 55 55 55
76 77 79 81 80 82 83 81 79 79 79 79 78 77 77 76 76 76 77 76 77 76 76 74 72 70 66 61 63 68 68 65 63 60 58 57 56 59 59 55 54 53 54
74 77 81 80 79 77 80 80 79 79 79 81 79 78 78 78 77 78 76 76 76 74 74 70 71 66 65 59 60 66 67 62 57 54 54 60 56 56 56 54 53 52 51
73 75 77 79 80 78 78 80 78 79 81 81 78 77 79 79 79 77 76 74 74 72 71 70 69 68 67 63 60 60 65 61 57 55 53 53 56 54 53 54 53 54 52
71 73 72 73 75 77 78 76 75 80 77 77 78 77 77 80 79 76 74 73 72 72 71 69 67 68 68 61 58 58 59 60 59 54 52 53 54 53 54 54 53 54 55
68 70 70 72 74 74 75 75 77 77 77 76 76 77 77 78 77 74 73 72 72 72 70 68 67 65 66 66 56 56 57 57 56 54 54 53 52 53 55 55 55 55 54
64 67 69 70 71 74 75 76 76 76 76 76 76 77 77 76 75 75 74 73 72 71 70 68 67 65 63 64 62 59 58 58 57 57 53 54 55 55 55 55 55 54 53
63 64 65 66 67 71 73 75 77 76 75 76 76 76 77 76 73 68 68 73 74 73 72 70 69 65 61 63 59 58 60 58 56 52 51 52 52 52 52 52 53 53 53
61 62 62 65 66 68 70 74 76 77 76 75 76 77 76 71 68 66 63 53 56 57 56 59 66 64 57 51 50 50 50 49 50 53 51 51 51 52 51 52 52 51 54
MSLP
1009.12 1009.60 1010.08 1010.78 1011.49 1012.11 1012.55 1012.95 1013.37 1013.71 1014.22 1014.81 1015.29 1015.53 1015.50 1015.28 1015.73 1015.58 1015.20 1015.44 1015.60 1015.59 1015.80 1016.10 1016.11 1015.96 1016.26 1016.35 1016.22 1016.31 1016.33 1016.53 1016.57 1016.60 1016.16 1015.72 1015.29 1015.14 1015.18 1015.08 1015.27 1015.51 1015.34
1008.80 1009.28 1009.73 1010.29 1010.98 1011.65 1012.25 1012.71 1012.98 1013.42 1013.93 1014.42 1014.88 1015.14 1015.18 1015.21 1015.29 1015.34 1015.10 1015.08 1015.33 1015.48 1015.58 1015.74 1016.01 1015.95 1016.11 1016.19 1016.17 1016.34 1016.57 1016.57 1016.37 1016.51 1017.00 1016.72 1016.03 1015.52 1014.97 1015.21 1015.38 1015.65 1015.29
1008.09 1008.77 1009.20 1009.75 1010.44 1011.22 1011.76 1012.17 1012.62 1013.05 1013.58 1014.14 1014.71 1015.07 1015.22 1015.30 1015.37 1015.40 1015.33 1015.18 1015.18 1015.39 1015.20 1015.28 1015.46 1015.63 1015.90 1016.04 1016.13 1016.20 1016.47 1016.38 1016.52 1016.51 1017.16 1017.44 1017.20 1016.58 1015.34 1014.88 1015.22 1015.31 1015.17
1007.24 1007.90 1008.62 1009.35 1009.86 1010.42 1011.09 1011.50 1012.22 1012.76 1013.31 1013.83 1014.44 1014.84 1015.10 1015.41 1015.27 1015.19 1015.24 1015.02 1014.83 1015.09 1014.93 1014.90 1014.89 1015.16 1015.33 1015.49 1015.67 1016.00 1016.14 1016.58 1016.85 1016.91 1016.90 1017.01 1016.96 1017.00 1016.73 1015.64 1015.49 1015.15 1014.72
1005.98 1006.72 1007.50 1008.32 1009.05 1009.80 1010.49 1011.10 1011.79 1012.34 1012.85 1013.43 1013.91 1014.46 1014.94 1015.16 1015.17 1015.17 1015.20 1015.02 1014.94 1014.84 1014.68 1014.42 1014.44 1014.78 1014.99 1015.24 1015.42 1015.89 1016.03 1016.14 1016.49 1016.86 1016.77 1017.00 1017.01 1016.93 1016.95 1016.48 1016.02 1015.26 1014.75
1005.17 1005.75 1006.46 1007.57 1008.40 1009.10 1009.88 1010.68 1011.44 1011.92 1012.33 1012.86 1013.46 1013.99 1014.48 1014.86 1015.20 1015.22 1015.26 1015.08 1014.90 1014.79 1014.39 1014.20 1014.22 1014.19 1014.68 1014.91 1015.04 1015.52 1015.86 1016.24 1016.18 1016.27 1016.68 1016.95 1016.93 1016.72 1016.80 1016.60 1016.20 1015.79 1015.38
1004.33 1004.94 1006.05 1006.84 1007.56 1008.37 1009.22 1010.07 1010.89 1011.46 1011.86 1012.32 1012.87 1013.38 1013.84 1014.32 1014.62 1014.81 1014.88 1014.88 1014.75 1014.50 1014.23 1014.18 1014.32 1014.19 1014.20 1014.53 1014.66 1015.48 1015.93 1015.98 1016.28 1015.99 1016.33 1016.22 1016.50 1016.49 1016.36 1016.20 1016.10 1016.10 1015.72
1003.24 1003.85 1004.70 1005.54 1006.42 1007.32 1008.34 1009.22 1010.14 1010.84 1011.35 1011.79 1012.25 1012.75 1013.29 1013.79 1014.08 1014.23 1014.38 1014.39 1014.14 1013.98 1013.97 1014.28 1014.10 1013.83 1013.99 1014.20 1014.74 1015.62 1015.84 1016.16 1016.11 1016.41 1016.38 1016.22 1016.26 1016.04 1015.98 1015.97 1015.98 1016.32 1016.14
1001.78 1002.51 1003.55 1004.70 1005.62 1006.53 1007.31 1008.30 1009.31 1010.02 1010.56 1011.10 1011.69 1012.20 1012.68 1013.18 1013.52 1013.74 1013.84 1013.77 1013.71 1013.63 1013.86 1014.10 1013.86 1013.72 1013.96 1014.24 1014.60 1015.66 1015.88 1016.19 1016.02 1016.36 1016.49 1016.37 1016.04 1015.76 1015.74 1015.73 1015.68 1016.12 1016.57
1000.38 1001.60 1002.66 1003.57 1004.63 1005.37 1006.15 1007.31 1008.24 1008.92 1009.56 1010.34 1010.97 1011.47 1011.96 1012.42 1012.82 1013.22 1013.29 1013.41 1013.25 1013.26 1013.51 1013.61 1013.51 1013.44 1013.63 1013.94 1014.60 1015.16 1015.23 1014.85 1015.05 1015.88 1016.50 1016.70 1015.99 1015.62 1015.79 1015.65 1015.79 1016.09 1016.41
999.66 1000.40 1001.54 1002.71 1003.44 1004.52 1005.64 1006.53 1007.56 1008.40 1009.16 1009.77 1010.23 1010.78 1011.26 1011.69 1012.20 1012.45 1012.62 1012.82 1012.88 1012.96 1013.15 1013.23 1013.24 1013.25 1013.38 1013.74 1014.16 1014.94 1014.84 1014.08 1014.63 1015.40 1016.34 1016.52 1015.85 1015.90 1016.08 1016.04 1016.14 1016.39 1016.64
999.02 999.80 1000.79 1001.83 1003.01 1003.94 1004.98 1005.86 1006.79 1007.69 1008.31 1008.90 1009.57 1010.12 1010.58 1011.03 1011.37 1011.76 1012.04 1012.34 1012.47 1012.48 1012.64 1012.92 1013.02 1013.05 1013.14 1013.30 1013.90 1014.30 1014.52 1014.34 1014.29 1015.61 1016.07 1016.40 1016.04 1016.27 1016.52 1016.70 1016.92 1017.08 1017.15
999.54 999.88 1000.68 1001.44 1002.16 1003.17 1004.23 1005.11 1006.01 1006.78 1007.58 1008.40 1009.06 1009.61 1010.05 1010.38 1010.60 1011.16 1011.60 1011.84 1011.87 1012.14 1012.29 1012.55 1012.78 1012.68 1012.68 1012.66 1013.40 1013.77 1014.27 1014.34 1015.16 1015.60 1015.93 1015.91 1016.27 1016.64 1017.07 1017.28 1017.56 1017.72 1017.64
998.50 999.42 1000.00 1000.73 1001.44 1002.54 1003.50 1004.38 1005.28 1006.18 1006.89 1007.72 1008.49 1008.96 1009.25 1009.51 1009.92 1010.56 1010.95 1011.26 1011.54 1011.82 1011.90 1012.01 1012.21 1012.30 1012.22 1012.26 1012.96 1013.65 1014.38 1015.10 1015.32 1015.51 1015.81 1016.02 1016.44 1016.99 1017.44 1017.78 1017.96 1018.03 1018.41
998.14 998.67 999.34 1000.23 1001.06 1002.23 1003.03 1003.80 1004.60 1005.54 1006.27 1007.13 1007.84 1008.13 1008.44 1008.86 1009.46 1010.02 1010.38 1010.70 1011.12 1011.29 1011.38 1011.55 1011.67 1011.73 1011.64 1012.30 1012.86 1013.55 1014.20 1014.86 1015.68 1016.04 1016.03 1016.56 1016.74 1017.24 1017.59 1017.56 1018.17 1018.47 1018.91
998.07 998.06 998.72 999.74 1000.73 1001.41 1002.26 1003.17 1004.10 1005.02 1005.74 1006.46 1006.99 1007.43 1008.01 1008.56 1009.03 1009.40 1009.82 1010.30 1010.56 1010.68 1010.94 1011.11 1011.11 1011.14 1011.37 1011.99 1012.71 1013.46 1014.27 1015.12 1015.74 1016.20 1016.83 1017.03 1017.35 1017.57 1017.47 1017.74 1018.12 1018.33 1018.89
997.96 998.45 998.57 998.85 999.86 1000.76 1001.59 1002.71 1003.53 1004.37 1005.18 1005.80 1006.28 1006.96 1007.54 1007.98 1008.44 1008.90 1009.40 1009.84 1010.02 1010.13 1010.45 1010.58 1010.72 1011.38 1011.95 1012.46 1013.04 1013.68 1014.49 1015.32 1015.92 1016.62 1017.16 1017.49 1017.78 1017.78 1017.96 1018.35 1018.65 1018.80 1018.83
998.71 998.32 998.68 998.99 999.67 1000.44 1001.31 1002.10 1003.03 1003.89 1004.65 1005.24 1005.80 1006.37 1006.95 1007.48 1008.04 1008.53 1008.90 1009.16 1009.38 1009.76 1010.04 1010.36 1010.92 1011.68 1012.58 1012.85 1013.42 1014.13 1014.94 1015.75 1016.42 1017.04 1017.35 1017.64 1018.02 1018.16 1018.37 1018.66 1018.99 1019.14 1018.93
999.63 999.11 998.87 999.12 999.71 1000.43 1001.04 1001.99 1002.91 1003.54 1004.23 1004.65 1005.14 1005.70 1006.35 1007.02 1007.53 1008.03 1008.32 1008.62 1009.04 1009.55 1009.96 1010.54 1011.23 1011.88 1013.03 1013.21 1013.70 1014.33 1015.22 1016.24 1017.12 1017.63 1017.80 1017.97 1018.29 1018.42 1018.60 1018.98 1019.32 1019.36 1019.13
1000.51 999.91 999.27 999.65 1000.06 1000.59 1001.06 1001.82 1002.62 1003.14 1003.59 1003.96 1004.38 1005.06 1005.70 1006.31 1006.84 1007.30 1007.82 1008.22 1008.77 1009.56 1010.24 1011.02 1011.53 1012.15 1013.16 1013.60 1014.00 1014.56 1015.46 1016.61 1017.53 1018.04 1018.28 1018.38 1018.46 1018.68 1018.86 1019.10 1019.32 1019.43 1019.48
1001.31 1000.74 1000.02 1000.21 1000.42 1000.82 1001.20 1001.81 1002.21 1002.52 1002.75 1003.34 1003.95 1004.60 1005.11 1005.58 1006.07 1006.75 1007.48 1008.25 1009.08 1009.80 1010.52 1011.33 1012.14 1012.70 1013.30 1014.15 1014.34 1014.79 1015.64 1016.68 1017.67 1018.24 1018.70 1018.70 1018.74 1018.88 1018.92 1018.95 1019.08 1019.25 1019.24
1002.26 1002.00 1001.46 1001.30 1001.04 1000.94 1001.32 1001.80 1002.06 1001.92 1002.37 1002.94 1003.56 1004.12 1004.60 1005.09 1005.70 1006.50 1007.57 1008.32 1009.07 1010.01 1010.80 1011.66 1012.56 1013.29 1013.83 1014.22 1014.71 1015.24 1015.56 1016.51 1017.31 1018.30 1018.61 1018.84 1018.88 1018.92 1018.98 1018.94 1018.92 1019.13 1019.49
1003.21 1003.18 1002.50 1002.31 1001.94 1001.79 1001.51 1001.63 1001.54 1001.98 1002.38 1002.92 1003.38 1003.87 1004.45 1004.98 1005.50 1006.50 1007.63 1008.50 1009.13 1009.84 1010.87 1011.67 1012.71 1013.62 1014.17 1014.73 1015.06 1015.50 1016.06 1016.75 1017.50 1017.93 1018.39 1018.84 1018.98 1019.12 1019.08 1019.17 1019.21 1019.41 1019.74
1003.84 1004.01 1003.28 1003.18 1002.62 1002.02 1001.78 1001.65 1001.57 1001.74 1002.25 1002.78 1003.22 1003.68 1004.29 1005.18 1005.94 1006.77 1007.52 1008.22 1008.92 1009.59 1010.64 1011.58 1012.57 1013.51 1014.28 1014.98 1015.66 1016.21 1016.63 1017.19 1017.70 1018.30 1018.92 1019.22 1019.29 1019.25 1019.43 1019.41 1019.46 1019.62 1019.85
1005.00 1004.40 1004.04 1003.87 1003.09 1002.45 1002.04 1001.53 1001.58 1001.69 1002.25 1002.69 1003.10 1003.68 1004.39 1005.17 1006.26 1007.38 1008.20 1008.24 1008.46 1008.79 1009.96 1010.99 1011.75 1012.70 1013.89 1014.52 1014.99 1015.75 1016.83 1017.40 1017.92 1018.69 1019.20 1019.59 1019.73 1019.94 1020.06 1020.10 1020.06 1020.06 1020.22
1004.65 1004.30 1004.20 1003.94 1003.28 1002.79 1002.32 1001.72 1001.59 1001.74 1002.13 1002.74 1003.17 1003.57 1004.41 1005.43 1006.40 1007.39 1008.46 1008.80 1008.62 1009.15 1009.95 1010.77 1011.32 1012.48 1013.18 1014.13 1014.98 1015.59 1016.64 1017.17 1017.84 1018.66 1019.28 1019.75 1020.08 1020.25 1020.38 1020.39 1020.53 1020.52 1020.59
Wind_Speed
15 11 18 16 15 14 14 13 10 8 6 3 3 2 3 2 2 4 6 7 6 6 5 4 3 3 2 2 3 1 1 0 2 2 4 3 2 1 3 4 3 1 3
14 14 18 18 17 17 15 12 12 9 7 5 3 3 2 3 3 2 4 8 6 6 6 5 5 4 1 1 2 2 1 0 1 3 1 3 5 4 3 2 3 3 4
17 16 18 19 17 17 16 14 14 13 10 7 3 1 1 2 2 1 3 5 6 7 7 7 5 5 3 4 3 2 3 3 2 1 4 2 4 3 4 3 3 2 3
18 17 18 18 19 18 16 15 14 14 10 9 7 7 5 4 3 2 3 5 8 8 7 7 7 6 4 5 4 2 3 2 2 1 0 2 2 2 4 3 3 6 4
22 21 20 21 20 18 16 15 14 13 12 12 11 8 7 3 2 3 3 4 5 5 7 7 6 6 4 4 5 3 3 3 3 2 1 1 2 2 3 4 4 4 4
22 21 21 19 18 17 16 15 14 14 14 14 10 11 9 6 4 4 4 4 3 5 8 9 6 6 4 5 5 4 2 3 3 3 2 3 3 2 3 2 3 3 3
21 19 21 19 19 20 19 15 16 15 14 15 13 11 10 8 8 7 5 4 4 4 6 6 5 5 6 5 4 3 2 4 2 4 2 3 3 1 2 2 2 2 2
21 21 22 22 21 22 20 19 18 15 14 14 14 11 9 5 5 6 5 4 5 4 4 4 6 8 5 6 3 2 1 2 3 4 3 1 2 3 2 2 3 1 2
23 24 22 22 20 20 22 21 18 17 15 15 13 12 10 9 9 7 5 7 7 6 6 6 6 6 6 6 4 4 4 3 1 4 4 2 2 1 1 2 2 3 1
23 21 20 22 20 19 21 21 19 20 17 16 13 12 12 10 11 6 9 7 6 5 5 6 5 6 6 6 6 5 6 6 4 4 6 6 3 3 1 1 2 1 3
22 22 20 20 22 19 19 19 18 17 15 14 14 13 12 11 8 10 11 10 7 6 6 7 6 6 5 5 5 9 8 7 5 6 4 8 3 2 3 4 3 3 2
18 19 21 21 20 21 18 19 17 17 16 15 14 13 11 8 11 11 10 7 7 6 7 6 6 5 6 6 9 10 9 9 8 6 2 6 4 5 5 4 5 5 3
8 11 16 19 20 20 18 17 17 18 16 14 14 12 12 11 12 10 8 7 8 6 6 5 6 6 6 7 7 6 7 3 5 6 3 1 6 6 4 4 5 4 5
8 10 15 17 18 18 18 16 15 16 16 15 14 13 13 14 12 10 8 7 6 6 6 7 7 7 8 3 6 7 7 7 4 4 4 6 7 7 6 5 6 5 6
9 15 17 16 16 17 16 15 14 14 15 15 14 15 14 12 10 7 7 7 7 7 7 7 6 7 6 6 7 7 9 8 8 6 7 5 10 11 7 6 5 7 4
12 18 17 17 18 18 17 16 14 12 14 15 15 14 11 10 9 9 7 7 7 8 7 7 8 6 2 16 14 11 10 10 9 8 6 7 10 9 14 13 11 9 6
7 8 17 20 17 18 18 16 15 12 14 14 13 11 10 10 10 8 7 7 8 6 6 7 4 6 7 15 15 16 10 10 10 8 6 6 4 8 7 8 7 5 5
3 8 11 15 15 15 15 14 12 12 13 12 12 11 11 11 7 9 9 7 6 6 6 4 7 8 6 15 16 17 12 10 8 7 6 7 6 6 7 5 4 4 2
7 1 5 8 9 12 12 12 11 12 12 13 12 11 11 10 10 10 9 6 5 4 4 7 9 11 7 13 17 15 12 11 10 6 6 6 6 7 9 7 6 4 4
8 6 7 6 7 7 10 12 11 11 14 13 12 10 11 11 12 11 8 5 5 7 7 8 7 11 12 14 16 14 10 11 7 5 5 8 7 8 8 7 6 5 2
11 11 9 7 5 6 7 10 10 13 12 9 8 9 11 12 11 9 5 7 9 10 9 10 8 10 13 12 16 16 9 9 7 5 4 3 8 8 8 7 4 3 1
11 12 9 7 7 2 7 6 7 9 7 8 9 9 11 9 9 12 8 11 12 11 11 11 8 7 10 13 13 13 14 11 10 6 4 4 7 8 7 6 8 8 5
7 8 8 7 5 5 3 6 8 7 7 7 8 9 9 9 11 13 12 10 10 11 9 9 9 7 6 7 14 16 16 12 7 5 7 7 7 8 6 9 10 8 5
8 6 8 8 7 8 8 7 6 6 7 8 9 9 11 10 9 8 10 10 9 10 10 9 10 8 6 8 7 8 8 12 7 9 5 5 6 7 4 5 6 5 4
5 5 6 5 8 9 9 6 5 7 7 8 8 9 10 11 10 6 3 7 9 12 11 10 11 12 9 9 12 13 9 7 8 7 4 3 3 3 3 3 5 4 4
8 8 6 7 8 9 10 7 5 7 9 8 8 9 9 8 8 8 6 14 5 14 13 13 11 5 12 17 17 17 15 15 15 4 4 3 3 4 3 3 3 3 4
Wind_Direction
195 172 176 171 168 170 172 179 171 177 159 156 151 200 223 270 144 225 203 194 216 218 212 179 204 245 266 257 252 209 187 312 14 20 319 324 316 189 341 334 123 340 297
186 177 177 175 173 175 180 178 183 174 178 179 162 170 181 237 230 210 222 194 209 221 209 204 212 224 232 18 326 212 288 9 163 165 103 345 329 327 319 157 129 208 258
190 183 180 183 178 179 182 180 184 182 182 177 142 160 347 320 308 160 222 229 208 224 209 208 213 222 190 227 228 230 179 232 262 335 125 358 254 329 314 331 22 305 255
192 188 183 186 185 188 184 180 181 181 180 170 187 191 200 209 229 223 205 227 212 219 223 212 217 223 210 220 225 150 216 121 248 357 343 235 194 232 322 336 334 311 289
192 191 187 186 190 183 184 184 182 183 179 184 193 194 213 208 227 256 270 246 229 239 244 225 222 218 218 236 232 184 205 187 163 198 221 326 317 252 224 277 305 295 336
200 194 192 181 187 187 184 182 183 187 183 186 187 189 199 206 207 238 237 251 251 236 235 240 230 239 219 231 236 193 198 185 186 182 161 198 228 252 269 266 288 289 334
201 193 191 186 184 185 187 185 186 192 189 189 193 198 205 201 217 223 228 240 234 230 237 233 237 241 228 220 228 160 203 196 210 207 228 203 226 264 241 198 281 291 350
203 198 193 189 185 185 186 187 188 194 192 193 198 201 196 198 212 216 213 227 236 241 247 249 243 249 242 222 176 104 9 258 345 25 352 337 218 212 215 232 145 316 351
201 201 190 193 187 186 187 188 188 195 195 195 200 205 207 207 217 220 214 232 247 247 239 225 243 247 232 229 144 114 84 61 94 15 6 313 276 280 297 231 159 154 66
196 197 190 191 191 190 189 187 188 191 192 196 201 208 207 206 217 196 221 223 243 249 267 267 251 250 226 216 156 126 165 224 132 98 21 330 286 33 287 148 129 132 128
196 193 190 189 191 190 185 188 188 190 194 197 200 205 210 212 200 209 223 228 240 239 250 259 262 252 247 221 157 133 182 210 244 92 36 294 331 38 43 60 68 59 82
191 191 188 187 186 188 183 186 188 190 193 195 198 206 208 199 207 215 222 215 222 222 233 241 262 249 230 220 144 164 185 210 231 105 327 281 67 74 63 56 63 58 18
153 181 183 185 185 186 185 184 188 192 192 191 198 203 210 211 215 213 214 204 218 224 235 229 231 249 239 232 143 175 177 223 99 139 214 128 118 88 79 68 79 66 64
194 192 183 184 182 182 184 182 187 189 188 191 195 202 206 212 216 212 204 202 200 208 222 228 226 227 233 169 150 143 128 112 129 107 93 105 104 114 104 100 92 82 73
182 185 184 180 177 178 181 186 184 181 184 187 193 206 210 211 210 200 201 197 191 210 215 226 232 233 229 141 134 123 127 120 93 93 79 101 111 121 144 111 95 91 91
214 183 180 169 175 174 177 183 185 182 179 186 197 203 201 201 202 202 192 180 198 208 207 219 223 231 104 133 133 131 127 116 121 111 100 89 102 113 99 99 119 136 127
227 186 179 173 169 173 178 185 185 177 182 190 199 195 190 195 197 192 178 186 201 195 202 222 198 102 109 125 126 128 123 126 129 128 125 115 105 100 99 111 112 120 122
36 176 179 171 171 173 180 182 176 177 183 193 195 192 190 196 174 176 190 195 190 185 204 129 116 112 108 124 121 116 123 123 116 110 117 115 119 136 134 129 95 68 76
328 195 135 160 155 169 171 168 171 177 184 198 197 192 187 183 177 185 191 184 152 166 111 128 125 122 124 126 121 119 109 105 95 97 103 112 112 126 134 123 110 83 28
349 6 112 95 141 163 159 163 180 179 196 199 200 186 180 181 183 182 174 151 123 118 124 103 118 129 124 124 119 119 117 112 112 85 84 98 106 102 110 114 118 80 346
7 358 43 79 99 142 149 180 181 196 201 193 178 174 178 179 175 156 127 125 122 117 115 113 118 120 133 135 123 125 126 133 127 125 120 104 110 118 122 120 120 144 166
10 3 27 33 14 43 163 191 196 204 169 163 168 169 166 167 155 136 130 132 129 127 122 123 115 119 136 135 124 121 124 134 131 143 141 144 134 123 97 66 62 120 118
24 354 10 353 25 18 248 193 226 174 174 164 163 157 152 147 144 138 140 136 136 138 134 135 135 134 135 136 135 133 127 124 115 137 151 144 122 89 58 60 80 89 98
23 345 15 358 353 357 345 226 198 178 161 163 159 154 146 139 137 139 146 144 148 144 142 146 148 144 139 136 138 128 113 112 107 124 111 115 98 75 72 59 64 93 110
10 1 10 337 329 334 336 298 187 149 149 158 154 144 142 143 133 103 116 154 161 151 154 161 157 155 159 169 154 146 143 146 143 117 84 70 65 73 61 51 69 72 83
360 5 358 336 328 326 309 290 187 156 149 151 152 153 143 132 133 126 91 35 82 131 132 145 153 132 135 140 146 138 139 137 141 101 128 135 137 136 146 126 87 59 88